Tracking 27107 objects as of 22-Mar-2023
HD Live streaming from Space Station
objects crossing your sky now

SBS 3

Track SBS 3 now!
SBS 3 is classified as:


NORAD ID: 13651
Int'l Code: 1982-110B
Perigee: 35,847.8 km
Apogee: 35,934.4 km
Inclination: 13.8 °
Period: 1,441.1 minutes
Semi major axis: 42262 km
RCS: 15.8489 m2 (large)
Launch date: November 11, 1982
Source: United States (US)
Launch site: AIR FORCE EASTERN TEST RANGE (AFETR)
Your satellite tracking list
Your tracking list is empty




NASA's NSSDC Master Catalog

Two Line Element Set (TLE):
1 13651U 82110B   23080.63674991 -.00000330  00000-0  00000-0 0  9993
2 13651  13.7546 343.0430 0010248  88.9285  85.3409  0.99925454 34717
Source of the keplerian elements: AFSPC